Sault Sainte Marie, Ontario

3:51 PM EST on February 27, 2017 (GMT -0500)
Sault Ste Marie

Weather History for CYAM - July, 2013

Change the Weather History Date:

Tuesday, July 16, 2013

  Actual Average Record
Temperature  
Mean Temperature 76 °F -  
Max Temperature 92 °F 74 °F 92 °F (2013)
Min Temperature 60 °F 52 °F 39 °F (2016)
Cooling Degree Days 11    
Growing Degree Days 26 (Base 50)    
Moisture  
Dew Point 69 °F    
Average Humidity 81    
Maximum Humidity 100    
Minimum Humidity 38    
Precipitation  
Precipitation 0.00 in 0.10 in - ()
Sea Level Pressure  
Sea Level Pressure 30.23 in    
Wind  
Wind Speed 3 mph ()    
Max Wind Speed 12 mph    
Max Gust Speed 20 mph    
Visibility 13.9 miles    
Events Rain    
Averages and records for this station are not official NWS values.
T = Trace of Precipitation, MM = Missing Value Source: Averaged Metar Reports

Daily Weather History Graph

Daily Weather History Graph

Search for Another Location

Airport or City:

Trip Planner

Search our weather history database for the weather conditions in past years. The results will help you decide how hot, cold, wet, or windy it might be!

Date:

Astronomy

Jul. 16, 2013 Rise Set
Actual Time 6:01 AM EDT 9:26 PM EDT
Civil Twilight 5:24 AM EDT 10:03 PM EDT
Nautical Twilight 4:34 AM EDT 10:52 PM EDT
Astronomical Twilight 3:31 AM EDT 11:55 PM EDT
Moon 2:58 PM EDT (7/16) 12:41 AM EDT (7/16)
Length of Visible Light 16h 39m
Length of Day
15h 24m
First Quarter, 56% of the Moon is Illuminated
Jul 16
First Quarter
Jul 22
Full
Jul 29
Last Quarter
Aug 6
New
Aug 14
First Quarter

Hourly Weather History & Observations

Time (EDT) Temp. Heat Index Dew Point Humidity Pressure Visibility Wind Dir Wind Speed Gust Speed Precip Events Conditions
12:00 AM 68.0 °F - 68.0 °F 100% 30.27 in 15.0 mi Calm Calm - N/A   Clear
1:00 AM 66.2 °F - 66.2 °F 100% 30.27 in 15.0 mi Calm Calm - N/A   Clear
2:00 AM 64 °F - 64 °F 98% 30.27 in 15 mi East 3.5 mph - -  
2:00 AM 64.4 °F - 64.4 °F 100% 30.26 in 15.0 mi East 2.3 mph - N/A   Clear
3:00 AM 62.6 °F - 62.6 °F 100% 30.26 in 15.0 mi Calm Calm - N/A   Clear
4:00 AM 62.6 °F - 62.6 °F 100% 30.27 in 15.0 mi ENE 2.3 mph - N/A   Clear
5:00 AM 62.6 °F - 62.6 °F 100% 30.28 in 15.0 mi East 3.5 mph - N/A   Clear
6:00 AM 62.6 °F - 62.6 °F 100% 30.29 in 8.0 mi Calm Calm - N/A   Mostly Cloudy
7:00 AM 66.2 °F - 66.2 °F 100% 30.28 in 10.0 mi Calm Calm - N/A   Mostly Cloudy
8:00 AM 67 °F - 66 °F 97% 30.28 in 7 mi East 3.5 mph - -  
8:00 AM 66.2 °F - 66.2 °F 100% 30.28 in 8.0 mi ENE 3.5 mph - N/A   Mostly Cloudy
9:00 AM 73.4 °F - 69.8 °F 88% 30.29 in 10.0 mi ENE 3.5 mph - N/A   Mostly Cloudy
10:00 AM 77.0 °F - 69.8 °F 78% 30.27 in 15.0 mi ESE 2.3 mph - N/A   Scattered Clouds
11:00 AM 82.4 °F 86.3 °F 69.8 °F 66% 30.26 in 15.0 mi SE 4.6 mph - N/A   Mostly Cloudy
12:00 PM 86.0 °F 89.4 °F 68.0 °F 55% 30.25 in 15.0 mi SSE 6.9 mph - N/A   Scattered Clouds
1:00 PM 87.8 °F 92.6 °F 69.8 °F 55% 30.23 in 15.0 mi South 8.1 mph - N/A   Mostly Cloudy
2:00 PM 90 °F - 68 °F 38% 30.22 in 15 mi South 9.2 mph - -  
2:00 PM 89.6 °F 93.4 °F 68.0 °F 49% 30.22 in 15.0 mi South 9.2 mph - N/A   Mostly Cloudy
3:00 PM 91.4 °F 95.4 °F 68.0 °F 46% 30.20 in 15.0 mi WSW 8.1 mph - N/A   Mostly Cloudy
4:00 PM 91.4 °F 96.8 °F 69.8 °F 49% 30.17 in 15.0 mi SW 8.1 mph - N/A   Mostly Cloudy
5:00 PM 86.0 °F 91.8 °F 71.6 °F 62% 30.19 in 15.0 mi SSW 11.5 mph 19.6 mph N/A   Mostly Cloudy
6:00 PM 77.0 °F - 71.6 °F 83% 30.20 in 15.0 mi WNW 9.2 mph - N/A   Mostly Cloudy
6:19 PM 75.2 °F - 73.4 °F 94% 30.19 in 15.0 mi WNW 8.1 mph - N/A Rain Light Rain
6:41 PM 77.0 °F - 73.4 °F 89% 30.18 in 15.0 mi WSW 2.3 mph - N/A   Mostly Cloudy
7:00 PM 78.8 °F - 75.2 °F 89% 30.19 in 15.0 mi NW 5.8 mph - N/A   Mostly Cloudy
8:00 PM 81 °F - 74 °F 73% 30.17 in 15 mi SW 4.6 mph - -  
8:00 PM 80.6 °F 85.4 °F 73.4 °F 79% 30.17 in 15.0 mi WSW 5.8 mph - N/A   Mostly Cloudy
9:00 PM 78.8 °F - 73.4 °F 83% 30.17 in 15.0 mi SW 4.6 mph - N/A   Mostly Cloudy
10:00 PM 78.8 °F - 71.6 °F 78% 30.17 in 15.0 mi SSW 5.8 mph - N/A   Mostly Cloudy
11:00 PM 77.0 °F - 73.4 °F 89% 30.17 in 15.0 mi SSW 6.9 mph - N/A   Scattered Clouds